St. Paul Lake Elmo, MN

6:56 AM CST on November 17, 2019 (GMT -0600)
St. Paul Lake Elmo

Weather History for K21D - September, 2019

Change the Weather History Date:

Saturday, September 21, 2019

  Actual Average (WUND) Record (WUND)
Temperature  
Mean Temperature 74 °F -  
Max Temperature 78 °F - - (-1)
Min Temperature 69 °F - - (-1)
Cooling Degree Days 8    
Growing Degree Days 24 (Base 50)    
Moisture  
Dew Point 70 °F    
Average Humidity 89    
Maximum Humidity 100    
Minimum Humidity 73    
Precipitation  
Precipitation 0.16 in - - ()
Sea Level Pressure  
Sea Level Pressure 29.82 in    
Wind  
Wind Speed 9 mph (South)    
Max Wind Speed 20 mph    
Max Gust Speed 25 mph    
Visibility 9 miles    
Events Rain , Thunderstorm    
Averages and records for this station are not official NWS values.
T = Trace of Precipitation, MM = Missing Value Source: NWS Daily Summary

Daily Weather History Graph

Daily Weather History Graph

Search for Another Location

Airport or City:

Astronomy

Sep. 21, 2019 Rise Set
Actual Time 6:57 AM CDT 7:11 PM CDT
Civil Twilight 6:27 AM CDT 7:40 PM CDT
Nautical Twilight 5:53 AM CDT 8:14 PM CDT
Astronomical Twilight 5:17 AM CDT 8:50 PM CDT
Moon 11:32 PM CDT (9/21) 2:20 PM CDT (9/21)
Length of Visible Light 13h 12m
Length of Day
12h 14m
Waning Gibbous, 54% of the Moon is Illuminated
Sep 21
Waning Gibbous
Sep 21
Last Quarter
Sep 28
New
Oct 5
First Quarter
Oct 13
Full

Hourly Weather History & Observations

Time (CDT) Temp. Dew Point Humidity Pressure Visibility Wind Dir Wind Speed Gust Speed Precip Events Conditions
12:15 AM 73.4 °F 69.8 °F 88% 29.93 in 10.0 mi SSE 10.4 mph - N/A   Clear
12:16 AM 73.4 °F 69.8 °F 88% 29.93 in 10.0 mi SSE 9.2 mph - N/A   Clear
12:38 AM 73.4 °F 69.8 °F 88% 29.92 in 10.0 mi SSE 9.2 mph - N/A   Clear
12:57 AM 73.4 °F 68.0 °F 83% 29.92 in 10.0 mi SSE 8.1 mph - N/A   Clear
1:16 AM 73.4 °F 68.0 °F 83% 29.92 in 10.0 mi South 8.1 mph - N/A   Clear
1:35 AM 73.4 °F 68.0 °F 83% 29.92 in 10.0 mi South 9.2 mph - N/A   Clear
1:55 AM 73.4 °F 68.0 °F 83% 29.92 in 10.0 mi SSE 6.9 mph - N/A   Clear
1:59 AM 73.4 °F 68.0 °F 83% 29.92 in 10.0 mi SSE 10.4 mph - N/A   Clear
2:17 AM 71.6 °F 68.0 °F 88% 29.92 in 10.0 mi SSE 8.1 mph - N/A   Clear
2:36 AM 71.6 °F 68.0 °F 88% 29.92 in 10.0 mi SSE 6.9 mph - N/A   Clear
2:55 AM 71.6 °F 68.0 °F 88% 29.91 in 10.0 mi SSE 5.8 mph - N/A   Clear
3:15 AM 71.6 °F 68.0 °F 88% 29.90 in 10.0 mi SSE 5.8 mph - N/A   Clear
3:37 AM 71.6 °F 68.0 °F 88% 29.89 in 10.0 mi SSE 5.8 mph - N/A   Clear
3:55 AM 71.6 °F 68.0 °F 88% 29.88 in 10.0 mi SSE 6.9 mph - N/A   Clear
4:15 AM 71.6 °F 68.0 °F 88% 29.88 in 10.0 mi SSE 6.9 mph - N/A Thunderstorm Clear
4:16 AM 71.6 °F 68.0 °F 88% 29.88 in 10.0 mi SSE 6.9 mph - N/A Thunderstorm Clear
4:36 AM 71.6 °F 68.0 °F 88% 29.86 in 10.0 mi SSE 9.2 mph - N/A Thunderstorm Mostly Cloudy
5:17 AM 69.8 °F 69.8 °F 100% 29.86 in 7.0 mi South 8.1 mph - 0.06 in Rain Light Rain
5:55 AM 69.8 °F 69.8 °F 100% 29.85 in 7.0 mi SE 6.9 mph - 0.16 in Rain Light Rain
5:56 AM 69.8 °F 69.8 °F 100% 29.85 in 7.0 mi SE 8.1 mph - 0.16 in Rain Light Rain
6:15 AM 69.8 °F 69.8 °F 100% 29.84 in 7.0 mi SE 6.9 mph - N/A   Overcast
6:19 AM 69.8 °F 69.8 °F 100% 29.84 in 7.0 mi SE 8.1 mph - N/A   Overcast
6:38 AM 69.8 °F 69.8 °F 100% 29.84 in 7.0 mi SSE 8.1 mph - N/A   Overcast
6:55 AM 69.8 °F 69.8 °F 100% 29.84 in 7.0 mi SSE 8.1 mph - N/A   Overcast
7:15 AM 69.8 °F 69.8 °F 100% 29.84 in 10.0 mi SSE 10.4 mph - N/A   Overcast
7:35 AM 69.8 °F 69.8 °F 100% 29.84 in 7.0 mi South 9.2 mph - N/A Rain Light Rain
7:36 AM 69.8 °F 69.8 °F 100% 29.84 in 7.0 mi South 9.2 mph - N/A Rain Light Rain
7:59 AM 69.8 °F 69.8 °F 100% 29.84 in 10.0 mi South 10.4 mph - N/A   Overcast
8:15 AM 69.8 °F 69.8 °F 100% 29.84 in 7.0 mi SSW 10.4 mph - N/A   Overcast
8:35 AM 69.8 °F 69.8 °F 100% 29.84 in 10.0 mi South 8.1 mph - N/A   Overcast
8:55 AM 69.8 °F 69.8 °F 100% 29.83 in 10.0 mi South 10.4 mph - N/A   Overcast
8:56 AM 69.8 °F 69.8 °F 100% 29.83 in 10.0 mi South 9.2 mph - N/A   Overcast
9:19 AM 71.6 °F 69.8 °F 94% 29.83 in 10.0 mi South 11.5 mph 17.3 mph N/A   Overcast
9:36 AM 71.6 °F 69.8 °F 94% 29.82 in 10.0 mi South 12.7 mph 17.3 mph N/A Thunderstorm Overcast
9:55 AM 73.4 °F 69.8 °F 88% 29.82 in 10.0 mi South 13.8 mph - N/A Thunderstorm Overcast
9:56 AM 73.4 °F 69.8 °F 88% 29.82 in 10.0 mi South 15.0 mph 19.6 mph N/A Thunderstorm Overcast
10:15 AM 73.4 °F 69.8 °F 88% 29.82 in 10.0 mi South 16.1 mph 19.6 mph N/A Thunderstorm Thunderstorm
10:16 AM 73.4 °F 69.8 °F 88% 29.82 in 10.0 mi South 13.8 mph 19.6 mph N/A Thunderstorm Thunderstorm
10:35 AM 73.4 °F 69.8 °F 88% 29.82 in 10.0 mi South 13.8 mph - N/A   Overcast
10:39 AM 73.4 °F 69.8 °F 88% 29.82 in 10.0 mi South 11.5 mph 19.6 mph N/A   Overcast
10:57 AM 73.4 °F 69.8 °F 88% 29.82 in 10.0 mi South 11.5 mph 19.6 mph N/A   Overcast
11:15 AM 73.4 °F 69.8 °F 88% 29.81 in 10.0 mi South 13.8 mph 18.4 mph N/A   Overcast
11:35 AM 73.4 °F 69.8 °F 88% 29.79 in 10.0 mi South 16.1 mph 19.6 mph N/A   Overcast
11:36 AM 73.4 °F 69.8 °F 88% 29.79 in 10.0 mi SSE 16.1 mph - N/A   Overcast
11:55 AM 73.4 °F 69.8 °F 88% 29.78 in 10.0 mi South 12.7 mph 23.0 mph N/A   Overcast
12:17 PM 73.4 °F 69.8 °F 88% 29.79 in 10.0 mi South 15.0 mph 20.7 mph N/A   Overcast
12:35 PM 73.4 °F 69.8 °F 88% 29.79 in 10.0 mi South 12.7 mph 21.9 mph N/A   Overcast
12:55 PM 77.0 °F 71.6 °F 83% 29.79 in 10.0 mi South 16.1 mph 21.9 mph N/A   Overcast
12:56 PM 77.0 °F 71.6 °F 83% 29.79 in 10.0 mi South 15.0 mph 21.9 mph N/A   Overcast
1:38 PM 73.4 °F 69.8 °F 88% 29.79 in 10.0 mi South 10.4 mph - N/A   Overcast
1:55 PM 73.4 °F 69.8 °F 88% 29.79 in 10.0 mi South 9.2 mph - N/A   Overcast
2:15 PM 73.4 °F 69.8 °F 88% 29.78 in 10.0 mi South 8.1 mph - N/A Rain Light Rain
2:35 PM 75.2 °F 71.6 °F 89% 29.77 in 10.0 mi South 9.2 mph - N/A   Overcast
2:36 PM 75.2 °F 71.6 °F 89% 29.77 in 10.0 mi South 9.2 mph - N/A   Overcast
2:58 PM 75.2 °F 71.6 °F 89% 29.76 in 10.0 mi South 11.5 mph - N/A   Mostly Cloudy
3:16 PM 77.0 °F 71.6 °F 83% 29.76 in 10.0 mi South 10.4 mph - N/A   Scattered Clouds
3:36 PM 77.0 °F 71.6 °F 83% 29.76 in 7.0 mi South 9.2 mph - N/A   Mostly Cloudy
3:55 PM 77.0 °F 71.6 °F 83% 29.75 in 10.0 mi South 6.9 mph - N/A Rain Light Rain
3:56 PM 77.0 °F 71.6 °F 83% 29.75 in 10.0 mi South 6.9 mph - N/A Rain Light Rain
4:15 PM 77.0 °F 73.4 °F 89% 29.75 in 7.0 mi SSW 5.8 mph - N/A   Overcast
4:19 PM 77.0 °F 73.4 °F 89% 29.75 in 7.0 mi SW 4.6 mph - N/A   Overcast
4:38 PM 78.8 °F 71.6 °F 78% 29.74 in 7.0 mi South 12.7 mph - N/A   Overcast
4:56 PM 78.8 °F 71.6 °F 78% 29.73 in 10.0 mi South 12.7 mph 17.3 mph N/A   Mostly Cloudy
5:15 PM 78.8 °F 71.6 °F 78% 29.74 in 7.0 mi SSW 18.4 mph 25.3 mph N/A   Mostly Cloudy
5:35 PM 78.8 °F 69.8 °F 74% 29.74 in 5.0 mi South 19.6 mph 23.0 mph N/A   Haze
5:59 PM 77.0 °F 69.8 °F 78% 29.74 in 10.0 mi South 15.0 mph 20.7 mph N/A   Overcast
6:16 PM 77.0 °F 69.8 °F 78% 29.75 in 10.0 mi SSW 16.1 mph 20.7 mph N/A   Overcast
6:55 PM 77.0 °F 69.8 °F 78% 29.74 in 10.0 mi South 11.5 mph 17.3 mph N/A   Overcast
6:56 PM 77.0 °F 69.8 °F 78% 29.74 in 10.0 mi South 10.4 mph 17.3 mph N/A   Overcast
7:15 PM 77.0 °F 69.8 °F 78% 29.75 in 7.0 mi South 11.5 mph - N/A   Mostly Cloudy
7:20 PM 77.0 °F 69.8 °F 78% 29.75 in 7.0 mi SSW 12.7 mph - N/A   Mostly Cloudy
7:37 PM 75.2 °F 69.8 °F 83% 29.75 in 10.0 mi South 8.1 mph - N/A   Scattered Clouds
7:55 PM 73.4 °F 69.8 °F 88% 29.75 in 10.0 mi South 9.2 mph - N/A   Scattered Clouds
8:15 PM 73.4 °F 69.8 °F 88% 29.76 in 10.0 mi South 8.1 mph - N/A   Mostly Cloudy
8:16 PM 73.4 °F 69.8 °F 88% 29.76 in 7.0 mi South 8.1 mph - N/A   Mostly Cloudy
8:35 PM 73.4 °F 69.8 °F 88% 29.77 in 7.0 mi South 5.8 mph - N/A   Overcast
8:36 PM 73.4 °F 69.8 °F 88% 29.77 in 7.0 mi South 6.9 mph - N/A   Overcast
8:58 PM 73.4 °F 69.8 °F 88% 29.78 in 7.0 mi South 5.8 mph - N/A   Overcast
9:16 PM 73.4 °F 69.8 °F 88% 29.78 in 10.0 mi SSW 6.9 mph - N/A   Scattered Clouds
9:35 PM 73.4 °F 69.8 °F 88% 29.79 in 10.0 mi SSW 8.1 mph - N/A   Mostly Cloudy
9:36 PM 73.4 °F 69.8 °F 88% 29.79 in 10.0 mi SSW 9.2 mph - N/A   Mostly Cloudy
9:55 PM 73.4 °F 69.8 °F 88% 29.80 in 10.0 mi SSW 8.1 mph - N/A   Overcast
9:56 PM 73.4 °F 69.8 °F 88% 29.80 in 10.0 mi SSW 8.1 mph - N/A   Overcast
10:15 PM 73.4 °F 69.8 °F 88% 29.80 in 10.0 mi SSW 6.9 mph - N/A   Overcast
10:19 PM 73.4 °F 69.8 °F 88% 29.80 in 10.0 mi SW 6.9 mph - N/A   Overcast
10:37 PM 71.6 °F 69.8 °F 94% 29.81 in 10.0 mi SSW 4.6 mph - N/A   Overcast
10:55 PM 71.6 °F 69.8 °F 94% 29.81 in 10.0 mi SSW 4.6 mph - N/A   Scattered Clouds
11:15 PM 69.8 °F 69.8 °F 100% 29.82 in 10.0 mi SSW 4.6 mph - N/A   Mostly Cloudy
11:16 PM 69.8 °F 69.8 °F 100% 29.82 in 10.0 mi SSW 4.6 mph - N/A   Mostly Cloudy
11:35 PM 69.8 °F 69.8 °F 100% 29.83 in 10.0 mi WNW 3.5 mph - N/A   Mostly Cloudy
11:36 PM 69.8 °F 69.8 °F 100% 29.83 in 10.0 mi WNW 4.6 mph - N/A   Overcast
11:58 PM 71.6 °F 62.6 °F 73% 29.84 in 10.0 mi West 8.1 mph - N/A   Overcast